Lumberton, NJ

1:42 PM EDT on August 28, 2016 (GMT -0400)
South Jersey Regional

Weather History for KVAY - March, 2014

Change the Weather History Date:

Wednesday, March 5, 2014

  Actual Average (KWRI) Record (KWRI)
Temperature  
Mean Temperature 26 °F -  
Max Temperature 39 °F 46 °F 62 °F (2008)
Min Temperature 12 °F 27 °F 10 °F (2009)
Degree Days  
Heating Degree Days 40    
Moisture  
Dew Point 10 °F    
Average Humidity 53    
Maximum Humidity 84    
Minimum Humidity 28    
Precipitation  
Precipitation 0.00 in - - ()
Sea Level Pressure  
Sea Level Pressure 30.28 in    
Wind  
Wind Speed 3 mph (North)    
Max Wind Speed 14 mph    
Max Gust Speed -    
Visibility 10 miles    
Events      
Averages and records for this station are not official NWS values.
T = Trace of Precipitation, MM = Missing Value Source: NWS Daily Summary

Daily Weather History Graph

Daily Weather History Graph

Search for Another Location

Airport or City:

Trip Planner

Search our weather history database for the weather conditions in past years. The results will help you decide how hot, cold, wet, or windy it might be!

Date:

Astronomy

Mar. 05, 2014 Rise Set
Actual Time 6:26 AM EST 5:55 PM EST
Civil Twilight 5:59 AM EST 6:22 PM EST
Nautical Twilight 5:28 AM EST 6:54 PM EST
Astronomical Twilight 4:56 AM EST 7:25 PM EST
Moon 8:50 AM EST (3/5) 11:01 PM EST (3/5)
Length of Visible Light 12h 23m
Length of Day
11h 29m
Waxing Crescent, 23% of the Moon is Illuminated
Mar 5
Waxing Crescent
Mar 8
First Quarter
Mar 16
Full
Mar 23
Last Quarter
Mar 30
New

Hourly Weather History & Observations

Time (EST) Temp. Windchill Dew Point Humidity Pressure Visibility Wind Dir Wind Speed Gust Speed Precip Events Conditions
12:54 AM 17.1 °F - 9.0 °F 71% 30.26 in 10.0 mi Calm Calm - N/A   Clear
1:54 AM 15.1 °F - 9.0 °F 77% 30.25 in 10.0 mi Calm Calm - N/A   Clear
2:54 AM 12.9 °F - 6.1 °F 74% 30.22 in 10.0 mi Calm Calm - N/A   Clear
3:54 AM 12.9 °F - 9.0 °F 84% 30.23 in 10.0 mi Calm Calm - N/A   Clear
4:54 AM 12.0 °F - 7.0 °F 80% 30.24 in 10.0 mi Calm Calm - N/A   Clear
5:54 AM 12.0 °F - 7.0 °F 80% 30.25 in 10.0 mi Calm Calm - N/A   Unknown
6:54 AM 14.0 °F - 9.0 °F 80% 30.25 in 10.0 mi Calm Calm - N/A   Unknown
7:54 AM 17.1 °F - 10.9 °F 77% 30.27 in 10.0 mi Calm Calm - N/A   Clear
8:54 AM 26.1 °F - 12.9 °F 58% 30.27 in 10.0 mi Calm Calm - N/A   Clear
9:54 AM 30.9 °F - 8.1 °F 38% 30.25 in 10.0 mi Calm Calm - N/A   Clear
10:54 AM 35.1 °F 31.0 °F 6.1 °F 30% 30.26 in 10.0 mi NNW 4.6 mph - N/A   Clear
11:54 AM 36.0 °F 31.1 °F 7.0 °F 30% 30.25 in 10.0 mi North 5.8 mph - N/A   Clear
12:54 PM 37.9 °F 33.5 °F 9.0 °F 30% 30.23 in 10.0 mi North 5.8 mph - N/A   Clear
1:54 PM 39.0 °F - 8.1 °F 28% 30.22 in 10.0 mi Calm Calm - N/A   Clear
2:54 PM 39.9 °F 33.9 °F 10.0 °F 29% 30.22 in 10.0 mi North 9.2 mph - N/A   Clear
3:54 PM 39.9 °F 33.4 °F 10.9 °F 31% 30.23 in 10.0 mi NNE 10.4 mph - N/A   Clear
4:54 PM 37.9 °F 31.5 °F 14.0 °F 38% 30.24 in 10.0 mi North 9.2 mph - N/A   Overcast
5:54 PM 36.0 °F 28.5 °F 14.0 °F 41% 30.27 in 10.0 mi North 10.4 mph - N/A   Overcast
6:54 PM 33.1 °F 27.7 °F 14.0 °F 46% 30.32 in 10.0 mi North 5.8 mph - N/A   Clear
7:54 PM 32.0 °F 25.6 °F 12.9 °F 45% 30.35 in 10.0 mi NNE 6.9 mph - N/A   Scattered Clouds
8:54 PM 32.0 °F 25.6 °F 12.9 °F 45% 30.38 in 10.0 mi NNE 6.9 mph - N/A   Overcast
9:54 PM 30.0 °F 20.0 °F 12.9 °F 49% 30.40 in 10.0 mi North 12.7 mph - N/A   Clear
10:54 PM 28.9 °F 19.2 °F 12.0 °F 49% 30.41 in 10.0 mi NNE 11.5 mph - N/A   Clear
11:54 PM 28.0 °F 17.0 °F 12.9 °F 53% 30.43 in 10.0 mi NNE 13.8 mph - N/A   Clear